Regional Weather Roundup
Issued by NWS

Home | Current Version | Previous Version | Text Only | Print | Product List | Glossary Off
Versions: 1 2 3 4 5 6 7 8 9 10 11 12 13 14 15 16 17 18 19 20 21 22 23 24 25 26 27

000
ASUS45 KCYS 241710
RWRWY

WYOMING REGIONAL WEATHER ROUNDUP
NATIONAL WEATHER SERVICE CHEYENNE WY
1100 AM MDT MON APR 24 2017

NOTE:  "FAIR" INDICATES FEW OR NO CLOUDS BELOW 12,000 FEET
WITH NO SIGNIFICANT WEATHER AND/OR OBSTRUCTIONS TO VISIBILITY.

WYZ001-241800-
YELLOWSTONE NATIONAL PARK

CITY           SKY/WX    TMP DP  RH WIND       PRES   REMARKS
LK YELLOWSTONE   N/A     33  32  96 VRB3      29.69F
W YELLOWSTONE  NOT AVBL

$$
WYZ002>013-054>058-071-098>099-241800-
NORTHERN WYOMING

CITY           SKY/WX    TMP DP  RH WIND       PRES   REMARKS
JACKSON        PTSUNNY   41  39  93 SW10      29.68F
CODY           FAIR      51  33  50 SE3       29.63F
GREYBULL       FAIR      54  37  52 SW3       29.61F
WORLAND        FAIR      55  36  48 VRB3      29.61F
SHERIDAN       FAIR      56  35  45 VRB6      29.62F
BUFFALO        FAIR      52  34  50 E7        29.64F
GILLETTE       FAIR      54  39  57 N6        29.64F
HULETT         CLOUDY    45  39  81 N5        29.67R
NEWCASTLE      FAIR      52  36  54 NW16G26   29.66R

$$
WYZ014>020-022>026-101>103-241800-
CENTRAL WYOMING

CITY           SKY/WX    TMP DP  RH WIND       PRES   REMARKS
BIG PINEY      CLOUDY    40  32  73 SE5       29.73F
PINEDALE       CLOUDY    37  32  81 E8        29.74F WCI  31
DUBOIS         CLOUDY    45  23  42 NW10      29.64F
LANDER         PTSUNNY   56  31  38 S13G26    29.61F
RIVERTON       FAIR      52  27  38 CALM      29.64F
CASPER         FAIR      57  32  38 SW15      29.65F
DOUGLAS        FAIR      57  32  38 NW10G18   29.67F

$$
WYZ021-027>030-104>119-241800-
SOUTHERN WYOMING

CITY           SKY/WX    TMP DP  RH WIND       PRES   REMARKS
EVANSTON       CLOUDY    46  32  58 SW18G26   29.72F
KEMMERER       DRIZZLE   37  32  81 SW7       29.74S WCI  32
ROCK SPRINGS   FAIR      48  35  60 SW5       29.73F
DIXON            N/A     52  31  45 S13G18    29.77F
RAWLINS        FAIR      53  30  41 SW15G25   29.72F
SARATOGA       FAIR      54  27  35 SW10G17   29.75F
LARAMIE        FAIR      51  21  30 W17G25    29.73F
CHEYENNE       FAIR      56  26  31 W15G21    29.72F
TORRINGTON     FAIR      60  34  37 W15G23    29.66F
PINE BLUFFS    FAIR      59  28  31 NW21G29   29.69F

$$




USA.gov is the U.S. government's official web portal to all federal, state and local government web resources and services.